�������l�o���
Date,Time,MP-1(��Sv/h),MP-2(��Sv/h),MP-3(��Sv/h),MP-4(��Sv/h),MP-5(��Sv/h),MP-6(��Sv/h),MP-7(��Sv/h),MP-8(��Sv/h),����,����(m/s),���J
2021/02/25,00:00,0.655,0.959,0.600,1.204,0.847,0.376,0.668,0.625,���k��,9.6,��
2021/02/25,00:10,0.654,0.960,0.602,1.207,0.849,0.376,0.668,0.625,���k��,9.0,��
2021/02/25,00:20,0.655,0.956,0.599,1.203,0.849,0.377,0.668,0.627,���k��,8.5,��
2021/02/25,00:30,0.655,0.956,0.599,1.206,0.848,0.378,0.668,0.625,���k��,10.5,��
2021/02/25,00:40,0.653,0.957,0.600,1.205,0.850,0.377,0.669,0.626,��,9.1,��
2021/02/25,00:50,0.651,0.956,0.601,1.204,0.851,0.378,0.668,0.625,���k��,8.8,��
2021/02/25,01:00,0.654,0.956,0.601,1.204,0.850,0.377,0.668,0.626,���k��,8.2,��
2021/02/25,01:10,0.657,0.958,0.602,1.203,0.847,0.378,0.669,0.626,���k��,5.9,��
2021/02/25,01:20,0.654,0.958,0.602,1.203,0.850,0.378,0.668,0.625,���k��,6.0,��
2021/02/25,01:30,0.655,0.959,0.601,1.204,0.849,0.378,0.667,0.626,�k��,5.0,��
2021/02/25,01:40,0.655,0.957,0.602,1.205,0.850,0.377,0.667,0.625,�k�k��,2.6,��
2021/02/25,01:50,0.655,0.960,0.602,1.205,0.850,0.377,0.668,0.625,�k��,2.6,��
2021/02/25,02:00,0.652,0.958,0.602,1.205,0.848,0.377,0.666,0.624,���k��,1.5,��
2021/02/25,02:10,0.654,0.960,0.602,1.204,0.847,0.377,0.667,0.625,�k��,1.5,��
2021/02/25,02:20,0.654,0.963,0.602,1.204,0.848,0.377,0.668,0.625,���k��,3.1,��
2021/02/25,02:30,0.653,0.960,0.602,1.205,0.849,0.377,0.666,0.625,�k��,3.5,��
2021/02/25,02:40,0.654,0.957,0.602,1.203,0.848,0.377,0.666,0.624,���k��,3.9,��
2021/02/25,02:50,0.655,0.958,0.601,1.205,0.850,0.377,0.666,0.625,���k��,5.0,��
2021/02/25,03:00,0.653,0.959,0.602,1.203,0.850,0.376,0.669,0.624,���k��,5.3,��
2021/02/25,03:10,0.654,0.959,0.603,1.204,0.849,0.376,0.666,0.625,���k��,5.4,��
2021/02/25,03:20,0.652,0.958,0.602,1.202,0.849,0.377,0.667,0.623,���k��,4.4,��
2021/02/25,03:30,0.656,0.958,0.601,1.204,0.848,0.378,0.666,0.623,���k��,3.3,��
2021/02/25,03:40,0.654,0.958,0.602,1.206,0.848,0.376,0.667,0.624,�k��,2.6,��
2021/02/25,03:50,0.653,0.958,0.601,1.207,0.848,0.377,0.668,0.625,�k��,3.1,��
2021/02/25,04:00,0.652,0.960,0.602,1.204,0.848,0.376,0.667,0.626,�k�k��,3.5,��
2021/02/25,04:10,0.654,0.959,0.600,1.201,0.847,0.375,0.667,0.625,�k��,2.9,��
2021/02/25,04:20,0.655,0.956,0.603,1.201,0.847,0.377,0.668,0.625,�k,2.2,��
2021/02/25,04:30,0.653,0.959,0.602,1.202,0.847,0.377,0.665,0.625,�k�k��,0.8,��
2021/02/25,04:40,0.653,0.960,0.604,1.202,0.848,0.376,0.669,0.624,�k��,1.2,��
2021/02/25,04:50,0.652,0.960,0.603,1.202,0.847,0.377,0.667,0.625,-,CALM,��
2021/02/25,05:00,0.653,0.957,0.603,1.203,0.849,0.376,0.667,0.625,-,CALM,��
2021/02/25,05:10,0.654,0.958,0.602,1.203,0.850,0.376,0.665,0.625,�k��,2.3,��
2021/02/25,05:20,0.654,0.958,0.601,1.203,0.848,0.376,0.666,0.624,�k��,2.0,��
2021/02/25,05:30,0.655,0.960,0.603,1.203,0.847,0.375,0.665,0.624,�k�k��,2.8,��
2021/02/25,05:40,0.654,0.959,0.602,1.202,0.847,0.376,0.667,0.624,�k��,2.9,��
2021/02/25,05:50,0.654,0.960,0.601,1.201,0.848,0.376,0.664,0.625,�k��,1.7,��
2021/02/25,06:00,0.654,0.959,0.603,1.202,0.849,0.377,0.668,0.625,�k��,1.4,��
2021/02/25,06:10,0.653,0.955,0.602,1.204,0.847,0.376,0.666,0.624,��,1.4,��
2021/02/25,06:20,0.654,0.955,0.601,1.200,0.846,0.377,0.664,0.624,�쐼,0.9,��
2021/02/25,06:30,0.653,0.958,0.600,1.202,0.847,0.375,0.666,0.624,�쐼,0.9,��
2021/02/25,06:40,0.654,0.957,0.602,1.202,0.846,0.376,0.666,0.626,�쓌,1.2,��
2021/02/25,06:50,0.654,0.960,0.601,1.203,0.847,0.376,0.666,0.625,���쓌,1.4,��
2021/02/25,07:00,0.653,0.956,0.603,1.205,0.846,0.376,0.664,0.624,���k��,1.2,��
2021/02/25,07:10,0.653,0.958,0.601,1.203,0.849,0.376,0.667,0.623,�k��,1.5,��
2021/02/25,07:20,0.655,0.959,0.600,1.201,0.847,0.375,0.666,0.623,�k�k��,2.5,��
2021/02/25,07:30,0.655,0.958,0.601,1.203,0.848,0.376,0.666,0.625,�k�k��,1.5,��
2021/02/25,07:40,0.653,0.961,0.602,1.204,0.846,0.377,0.667,0.624,�k,0.9,��
2021/02/25,07:50,0.656,0.958,0.602,1.202,0.848,0.375,0.666,0.625,�k��,1.1,��
2021/02/25,08:00,0.653,0.960,0.602,1.203,0.849,0.376,0.667,0.624,�k��,1.2,��
2021/02/25,08:10,0.655,0.958,0.603,1.203,0.845,0.375,0.666,0.624,���k��,3.3,��
2021/02/25,08:20,0.654,0.958,0.602,1.206,0.847,0.377,0.667,0.625,��,4.9,��
2021/02/25,08:30,0.656,0.957,0.603,1.204,0.847,0.375,0.667,0.625,���k��,5.3,��
2021/02/25,08:40,0.656,0.960,0.602,1.203,0.848,0.376,0.667,0.624,���k��,6.3,��
2021/02/25,08:50,0.656,0.957,0.602,1.206,0.847,0.377,0.668,0.624,���k��,6.6,��
2021/02/25,09:00,0.655,0.959,0.604,1.203,0.848,0.376,0.669,0.625,���k��,8.7,��
2021/02/25,09:10,0.656,0.959,0.602,1.203,0.847,0.376,0.667,0.624,���k��,8.5,��
2021/02/25,09:20,0.654,0.957,0.603,1.205,0.847,0.375,0.668,0.625,���k��,8.4,��
2021/02/25,09:30,0.655,0.956,0.604,1.204,0.848,0.374,0.668,0.626,���k��,6.5,��
2021/02/25,09:40,0.656,0.956,0.604,1.204,0.847,0.377,0.665,0.626,���k��,6.8,��
2021/02/25,09:50,0.654,0.957,0.602,1.203,0.848,0.377,0.667,0.626,���k��,7.7,��
2021/02/25,10:00,0.657,0.957,0.605,1.205,0.848,0.376,0.666,0.625,���k��,5.9,��
2021/02/25,10:10,0.655,0.958,0.603,1.205,0.849,0.377,0.667,0.625,���k��,6.0,��
2021/02/25,10:20,0.650,0.958,0.602,1.205,0.849,0.377,0.667,0.626,���k��,5.6,��
2021/02/25,10:30,0.654,0.957,0.604,1.205,0.850,0.377,0.666,0.624,���k��,4.7,��
2021/02/25,10:40,0.654,0.955,0.604,1.205,0.849,0.374,0.667,0.626,��,5.4,��
2021/02/25,10:50,0.656,0.955,0.603,1.202,0.849,0.368,0.666,0.626,��,5.8,��
2021/02/25,11:00,0.657,0.953,0.604,1.206,0.850,0.368,0.666,0.624,��,6.3,��
2021/02/25,11:10,0.656,0.956,0.601,1.206,0.850,0.375,0.666,0.624,���k��,6.8,��
2021/02/25,11:20,0.658,0.960,0.603,1.206,0.851,0.378,0.666,0.625,��,6.6,��
2021/02/25,11:30,0.658,0.959,0.603,1.206,0.852,0.377,0.666,0.625,���k��,4.4,��
2021/02/25,11:40,0.656,0.958,0.603,1.207,0.852,0.376,0.667,0.628,���쐼,3.4,��
2021/02/25,11:50,0.657,0.960,0.602,1.204,0.849,0.378,0.667,0.627,�k��,1.4,��
2021/02/25,12:00,0.655,0.961,0.603,1.207,0.851,0.377,0.668,0.626,�k�k��,2.0,��
2021/02/25,12:10,0.655,0.959,0.603,1.207,0.850,0.378,0.667,0.624,-,CALM,��
2021/02/25,12:20,0.656,0.960,0.606,1.205,0.849,0.376,0.666,0.626,��,2.5,��
2021/02/25,12:30,0.656,0.962,0.605,1.205,0.852,0.378,0.666,0.626,��,2.6,��
2021/02/25,12:40,0.656,0.960,0.604,1.206,0.851,0.377,0.667,0.626,���k��,3.1,��
2021/02/25,12:50,0.655,0.961,0.606,1.206,0.852,0.377,0.667,0.628,�k��,2.6,��
2021/02/25,13:00,0.656,0.959,0.604,1.206,0.850,0.378,0.668,0.626,���k��,2.5,��
2021/02/25,13:10,0.657,0.959,0.604,1.207,0.851,0.379,0.666,0.627,�k��,3.5,��
2021/02/25,13:20,0.657,0.959,0.604,1.209,0.850,0.379,0.667,0.626,���k��,2.9,��
2021/02/25,13:30,0.656,0.960,0.603,1.207,0.850,0.377,0.667,0.624,�k��,3.1,��
2021/02/25,13:40,0.654,0.960,0.604,1.207,0.852,0.378,0.665,0.624,���k��,3.0,��
2021/02/25,13:50,0.654,0.961,0.604,1.208,0.851,0.378,0.667,0.623,��,4.6,��
2021/02/25,14:00,0.656,0.960,0.605,1.204,0.851,0.378,0.667,0.623,��,4.7,��
2021/02/25,14:10,0.657,0.959,0.605,1.206,0.851,0.378,0.666,0.623,��,4.0,��
2021/02/25,14:20,0.656,0.961,0.606,1.206,0.852,0.377,0.667,0.624,�k��,4.0,��
2021/02/25,14:30,0.658,0.962,0.604,1.207,0.851,0.377,0.666,0.623,�k��,4.1,��
2021/02/25,14:40,0.658,0.962,0.605,1.206,0.852,0.378,0.666,0.623,���k��,3.8,��
2021/02/25,14:50,0.657,0.965,0.605,1.205,0.852,0.379,0.667,0.624,���k��,3.2,��
2021/02/25,15:00,0.656,0.963,0.604,1.205,0.852,0.379,0.667,0.623,��,2.6,��
2021/02/25,15:10,0.655,0.962,0.607,1.207,0.851,0.377,0.668,0.623,��,2.5,��
2021/02/25,15:20,0.657,0.963,0.604,1.209,0.851,0.378,0.668,0.623,���쓌,3.1,��
2021/02/25,15:30,0.657,0.965,0.606,1.206,0.853,0.379,0.667,0.623,��,2.6,��
2021/02/25,15:40,0.655,0.963,0.607,1.207,0.852,0.378,0.668,0.626,��쓌,4.6,��
2021/02/25,15:50,0.656,0.962,0.608,1.209,0.853,0.378,0.669,0.626,�쓌,5.0,��
2021/02/25,16:00,0.657,0.964,0.605,1.205,0.853,0.378,0.671,0.626,�쓌,3.9,��
2021/02/25,16:10,0.655,0.966,0.604,1.204,0.851,0.377,0.671,0.626,�쓌,4.5,��
2021/02/25,16:20,0.657,0.965,0.605,1.207,0.852,0.379,0.670,0.625,��쓌,5.6,��
2021/02/25,16:30,0.655,0.966,0.605,1.207,0.851,0.379,0.669,0.626,�쓌,5.6,��
2021/02/25,16:40,0.656,0.964,0.606,1.206,0.851,0.377,0.669,0.626,���쓌,6.1,��
2021/02/25,16:50,0.656,0.963,0.604,1.206,0.851,0.379,0.668,0.627,���쓌,4.8,��
2021/02/25,17:00,0.655,0.963,0.606,1.206,0.850,0.378,0.671,0.625,���쓌,5.4,��
2021/02/25,17:10,0.655,0.965,0.605,1.206,0.852,0.378,0.670,0.625,���쓌,5.2,��
2021/02/25,17:20,0.654,0.962,0.607,1.208,0.852,0.379,0.669,0.625,���쓌,5.6,��
2021/02/25,17:30,0.657,0.964,0.605,1.206,0.854,0.378,0.670,0.625,�쓌,5.4,��
2021/02/25,17:40,0.654,0.963,0.604,1.208,0.853,0.377,0.668,0.626,���쓌,4.3,��
2021/02/25,17:50,0.656,0.963,0.606,1.207,0.851,0.377,0.668,0.626,�쓌,4.9,��
2021/02/25,18:00,0.658,0.963,0.604,1.207,0.853,0.378,0.669,0.627,�쓌,4.2,��
2021/02/25,18:10,0.657,0.963,0.605,1.206,0.853,0.377,0.667,0.626,�쓌,4.0,��
2021/02/25,18:20,0.657,0.965,0.604,1.208,0.852,0.378,0.667,0.625,�쓌,4.3,��
2021/02/25,18:30,0.658,0.965,0.604,1.205,0.852,0.378,0.669,0.625,��쓌,5.0,��
2021/02/25,18:40,0.656,0.964,0.606,1.208,0.853,0.377,0.667,0.625,�쓌,4.3,��
2021/02/25,18:50,0.656,0.966,0.604,1.206,0.852,0.377,0.668,0.625,��쓌,3.7,��
2021/02/25,19:00,0.656,0.964,0.604,1.205,0.853,0.378,0.667,0.624,��,3.5,��
2021/02/25,19:10,0.656,0.963,0.604,1.205,0.854,0.377,0.668,0.624,��,4.8,��
2021/02/25,19:20,0.657,0.964,0.606,1.206,0.851,0.377,0.668,0.626,��쐼,4.9,��
2021/02/25,19:30,0.656,0.963,0.604,1.203,0.852,0.377,0.668,0.625,��쐼,4.7,��
2021/02/25,19:40,0.656,0.964,0.604,1.206,0.854,0.377,0.667,0.625,��쐼,5.1,��
2021/02/25,19:50,0.656,0.963,0.605,1.206,0.855,0.377,0.667,0.624,��쐼,5.2,��
2021/02/25,20:00,0.656,0.963,0.604,1.207,0.855,0.377,0.668,0.625,��쐼,5.2,��
2021/02/25,20:10,0.656,0.960,0.605,1.204,0.854,0.377,0.665,0.626,��쐼,5.5,��
2021/02/25,20:20,0.657,0.962,0.604,1.207,0.854,0.376,0.666,0.627,��쐼,6.0,��
2021/02/25,20:30,0.656,0.963,0.604,1.204,0.853,0.378,0.667,0.626,��쐼,6.1,��
2021/02/25,20:40,0.656,0.964,0.605,1.206,0.853,0.377,0.667,0.625,�쐼,6.2,��
2021/02/25,20:50,0.657,0.963,0.604,1.206,0.852,0.378,0.667,0.625,�쐼,6.1,��
2021/02/25,21:00,0.656,0.963,0.604,1.206,0.852,0.378,0.666,0.625,�쐼,5.8,��
2021/02/25,21:10,0.656,0.965,0.605,1.205,0.851,0.375,0.666,0.625,�쐼,6.6,��
2021/02/25,21:20,0.656,0.963,0.604,1.204,0.854,0.378,0.667,0.626,��쐼,6.7,��
2021/02/25,21:30,0.656,0.960,0.604,1.205,0.854,0.378,0.666,0.624,��쐼,7.0,��
2021/02/25,21:40,0.657,0.963,0.605,1.206,0.853,0.379,0.666,0.625,�쐼,5.7,��
2021/02/25,21:50,0.657,0.963,0.604,1.206,0.854,0.377,0.667,0.626,�쐼,5.2,��
2021/02/25,22:00,0.656,0.961,0.605,1.206,0.853,0.377,0.667,0.625,�쐼,5.3,��
2021/02/25,22:10,0.657,0.963,0.603,1.206,0.853,0.378,0.667,0.626,�쐼,4.7,��
2021/02/25,22:20,0.656,0.961,0.605,1.204,0.851,0.378,0.668,0.625,�쐼,2.6,��
2021/02/25,22:30,0.656,0.962,0.604,1.205,0.853,0.377,0.669,0.626,�쐼,1.5,��
2021/02/25,22:40,0.658,0.963,0.604,1.206,0.852,0.377,0.665,0.625,���쐼,2.0,��
2021/02/25,22:50,0.656,0.960,0.603,1.203,0.852,0.377,0.666,0.625,���쐼,2.6,��
2021/02/25,23:00,0.656,0.960,0.603,1.206,0.853,0.377,0.668,0.625,���쐼,3.3,��
2021/02/25,23:10,0.657,0.960,0.604,1.207,0.852,0.377,0.667,0.625,���쐼,4.4,��
2021/02/25,23:20,0.656,0.963,0.606,1.204,0.853,0.377,0.666,0.623,���쐼,5.3,��
2021/02/25,23:30,0.658,0.962,0.604,1.205,0.853,0.377,0.666,0.626,�쐼,5.5,��
2021/02/25,23:40,0.656,0.959,0.605,1.205,0.853,0.378,0.667,0.625,��쐼,6.4,��
2021/02/25,23:50,0.657,0.962,0.605,1.205,0.851,0.377,0.668,0.625,�쐼,6.1,��
